Regional Weather Roundup
Issued by NWS

Current Version | Previous Version | Text Only | Print | Product List | Glossary On
Versions: 1 2 3 4 5 6 7 8 9 10 11 12 13 14 15 16 17 18 19 20 21 22 23 24 25 26 27 28 29 30 31 32 33 34 35 36 37 38 39 40 41 42 43 44 45 46 47 48 49 50
000
ASUS46 KLOX 231212
RWRCA

SOUTHERN CALIFORNIA WEATHER ROUNDUP
NATIONAL WEATHER SERVICE OXNARD CALIFORNIA
500 AM PDT WED JUL 23 2014

NOTE: "FAIR" INDICATES FEW OR NO CLOUDS BELOW 12,000 FEET WITH NO
SIGNIFICANT WEATHER AND/OR OBSTRUCTIONS TO VISIBILITY.

  -  STATIONS PRECEEDED BY AN ASTERISK (*) ARE NOT NWS OR FAA
     STATIONS AND ARE NOT SUBJECT TO NWS AND FAA QUALITY CONTROL.

CAZ041-042-087-231300-
LA AND ORANGE COUNTY COASTAL AREAS


CITY           SKY/WX    TMP DP  RH WIND       PRES   REMARKS
L.A. DOWNTOWN  CLEAR     66  60  81 CALM      29.98S
L.A. AIRPORT   PTCLDY    65  61  87 CALM      29.99S
LONG BEACH     CLEAR     66  60  81 CALM      29.98S

CITY           SKY/WX    TMP DP  RH WIND       PRES   REMARKS
AVALON           N/A     59 N/A N/A MISG        N/A
FULLERTON      CLEAR     68  58  70 CALM      29.97S
*GETTY CENTER    N/A     66  54  63 NE1         N/A
HAWTHORNE      CLEAR     67  62  84 CALM      29.99S
*LEO CARRILLO    N/A     65  54  68 N3          N/A
*LOS ALAMITOS  FAIR      62  60  91 CALM      29.98S
*REDONDO BEACH   N/A     64  60  86 CALM      29.98R
SANTA ANA      CLEAR     68  60  75 CALM      29.98S
STA MONICA APT CLEAR     67  60  78 CALM      29.99R
*UCLA            N/A     64  55  72 CALM      29.97R

$$

CAZ547-548-048-231300-
LA COUNTY VALLEYS AND INLAND EMPIRE


CITY           SKY/WX    TMP DP  RH WIND       PRES   REMARKS
BURBANK        CLEAR     68  50  52 CALM      29.99S
VAN NUYS       CLEAR     68  54  60 CALM      29.99F

CITY           SKY/WX    TMP DP  RH WIND       PRES   REMARKS
CORONA AIRPORT SUNNY     55  48  77 MISG      30.00S
CHINO          CLEAR     57  53  86 CALM      30.01S
MARCH AFB      CLEAR     62  46  55 CALM      30.02F
*NORTHRIDGE      N/A     66  52  59 CALM        N/A
ONTARIO        PTCLDY    68  53  58 CALM      30.00S
*PASADENA        N/A     68  55  64 CALM        N/A
RIVERSIDE      CLEAR     65  52  62 CALM      30.00S
SAN BERNARDINO NOT AVBL
*SAN GABRIEL     N/A     65  57  73 CALM      29.95S
*SAN RAFAEL HI   N/A     69  51  53 CALM        N/A
*SAUGUS          N/A     66  46  48 CALM        N/A
*WHITEMAN AP   NOT AVBL
*WHITTIER HILL   N/A     67  57  71 SE3         N/A
*WOODLAND HILL   N/A     63  52  67 SE1         N/A

$$

CAZ054-055-231300-
LA AND SAN BERNARDINO COUNTY MOUNTAINS


CITY           SKY/WX    TMP DP  RH WIND       PRES   REMARKS
*BIG BEAR AIRP SUNNY     45  25  45 CALM      30.36R
*CHILAO          N/A     67  38  35 N2          N/A
MT WILSON NWS    N/A     68  18  14 W6          N/A
SANDBERG       CLEAR     68  38  33 NW14      30.19F
*WARM SPRINGS    N/A     70  38  31 W14         N/A

$$

CAZ028-029-059-060-099-231300-
ANTELOPE VALLEY AND SURROUNDING AREAS


CITY           SKY/WX    TMP DP  RH WIND       PRES   REMARKS
LANCASTER      CLEAR     69  37  30 W9        30.06S
PALMDALE       CLEAR     70  46  42 SW9       30.07S
*POPPY PARK      N/A     68  35  30 W3          N/A

CITY           SKY/WX    TMP DP  RH WIND       PRES   REMARKS
29 PALMS       CLEAR     80  34  19 NW9       30.06S
BARSTOW/DAGGET CLEAR     74  41  30 W5        30.02R
BISHOP         CLEAR     56  34  43 N6        30.12R
CHINA LAKE     PTCLDY    76  46  34 SW7       30.01S
EDWARDS AFB    CLEAR     67  44  42 SW12      30.03S
MOJAVE         FAIR      75  43  31 CALM      30.07S
NEEDLES        CLEAR     86  31  13 SW5       29.88R
VICTORVILLE    CLEAR     68  36  30 S6        30.09S

$$

CAZ039-040-231300-
VENTURA AND SANTA BARBARA COUNTY COAST


CITY           SKY/WX    TMP DP  RH WIND       PRES   REMARKS
CAMARILLO      CLEAR     62  56  80 NE3       29.99R
NWS OXNARD       N/A     60  55  83 CALM      29.99R
OXNARD AIRPORT CLEAR     62  57  83 CALM      29.99S
*POINT MUGU    CLEAR    N/A N/A N/A NE3       29.99S
SBA APT/GOLETA CLEAR     62  55  77 CALM      29.98R
*SANTA BARBARA   N/A     66  58  73 CALM      30.06R
*VENTURA         N/A     61  56  84 CALM      30.02S

$$

CAZ044-045-231300-
VENTURA COUNTY VALLEYS


CITY           SKY/WX    TMP DP  RH WIND       PRES   REMARKS
*SIMI VALLEY     N/A     63  56  79 CALM      29.94R
*OJAI            N/A     57  53  86 CALM      29.94R
*FILLMORE        N/A     60  55  86 CALM      29.89S

$$

CAZ053-231300-
VENTURA COUNTY MOUNTAINS


CITY           SKY/WX    TMP DP  RH WIND       PRES   REMARKS
*LOCKWOOD VLY    N/A     46  39  76 MISG        N/A
*ROSE VALLEY     N/A     52  46  82 MISG        N/A

$$

CAZ034-035-036-231300-
CENTRAL COAST AND SANTA YNEZ VALLEY


CITY           SKY/WX    TMP DP  RH WIND       PRES   REMARKS
SAN LUIS OBISP CLEAR     58  55  90 CALM      30.07F
SANTA MARIA    CLEAR     58  53  84 CALM      30.07F

CITY           SKY/WX    TMP DP  RH WIND       PRES   REMARKS
*CAL POLY SLO    N/A     59  57  94 CALM        N/A
*CAMBRIA         N/A     53  51  93 SW1       29.98R
*LOMPOC          N/A     52  45  76 CALM      30.08S
*PISMO BEACH     N/A     60  57  90 NE3       30.08S

$$

CAZ037-038-051-231300-
SAN LUIS OBISPO COUNTY INTERIOR AND CUYAMA VALLEY


CITY           SKY/WX    TMP DP  RH WIND       PRES   REMARKS
*CUYAMA          N/A     60  48  65 SE3       30.01S
PASO ROBLES    PTCLDY    57  52  83 SW3       30.11R

$$

CAZ032-033-061-231300-
SOUTHERN DESERTS


CITY           SKY/WX    TMP DP  RH WIND       PRES   REMARKS
BLYTHE         CLEAR     88  33  14 N12       29.82S
IMPERIAL       CLEAR     84  47  27 NW5       29.80R
PALM SPRINGS   CLEAR     82  51  34 CALM      29.86S
THERMAL        CLEAR     90  39  16 N13       29.79S

$$

ELSEWHERE ACROSS THE WESTERN UNITED STATES AND MEXICO


CITY           SKY/WX    TMP DP  RH WIND       PRES   REMARKS
DENVER, CO     PTCLDY    66  58  75 W7        30.34R
GRAND CANYON,  PTCLDY    55  42  61 E3        30.37S
HONOLULU, HI   LGT RAIN  79  70  73 E8        30.03F
KAHULUI, MAUI  MOCLDY    75  70  83 NE15      30.02F
LAKE TAHOE, CA PTCLDY    47  38  71 N3        30.26F
LAS VEGAS, NV  CLEAR     84  31  14 S7        29.94R
MAMMOTH LAKES, FAIR      39  32  75 CALM      30.33F
MEXICO CITY, M MOCLDY    57  48  72 W5        30.39R
PHOENIX, AZ    MOCLDY    95  52  23 NE3       29.86S HX  92
PORTLAND, OR   CLOUDY    63  54  72 S8        30.01R
RENO, NV       MOCLDY    63  48  58 N5        30.15S
SALT LAKE CITY PTCLDY    74  38  27 SE10      30.10S
SAN DIEGO, CA  PTCLDY    68  61  77 CALM      30.00S
SAN FRANCISCO, MOCLDY    67  59  75 CALM      30.10S
SAN JOSE, CA   CLEAR     60  54  80 S3        30.11S
SEATTLE, WA    CLOUDY    61  58  90 CALM      29.98R
TIJUANA, MEX   CLEAR     64  59  82 CALM      30.01F

$$

STATION/POSITION TIME  TEMP    WIND        PRES    VSBY  WAVE
                       AIR SEA DIR/SP/G                  HT/PER
                 (UTC) (F)     (DEG/KT/KT) (MB)    (MI)  (FT/S)
POINT ARGUELLO B NOT AVBL
WEST SANTA BARBA 1200   63 63  320/ 21/ 27 1015.9F         4/ 4
POINT CONCEPTION NOT AVBL
EAST SANTA BARBA 1000   66 66   CALM  /  2 1015.5
SANTA MONICA BAY 1200   69 70  350/  6/ 10 1015.1S         4/ 6



USA.gov is the U.S. government's official web portal to all federal, state and local government web resources and services.